| time (UTC) | temp C | wind direction | speed KPH | gust KPH | rain 1hr cm | rain 24hr cm | rain mn cm | humidity % | barometer mb |
| 20260905040307 | 13 | 109 | 0.0 | 0.0 | 0.00 | 0.20 | 0.10 | 83 | 1016.9 |
| 20260905035803 | 13 | 109 | 0.0 | 0.0 | 0.00 | 0.20 | 0.10 | 83 | 1016.9 |
| 20260905035239 | 13 | 109 | 0.0 | 0.0 | 0.00 | 0.20 | 0.10 | 82 | 1016.8 |
| 20260905034725 | 14 | 109 | 0.0 | 0.0 | 0.00 | 0.20 | 0.10 | 82 | 1016.7 |
| 20260905034252 | 14 | 109 | 0.0 | 0.0 | 0.00 | 0.20 | 0.10 | 81 | 1016.7 |
| 20260905033727 | 14 | 109 | 0.0 | 0.0 | 0.00 | 0.20 | 0.10 | 81 | 1016.7 |
| 20260905033234 | 14 | 109 | 0.0 | 0.0 | 0.00 | 0.20 | 0.10 | 81 | 1016.7 |
| 20260905032726 | 14 | 109 | 0.0 | 0.0 | 0.00 | 0.20 | 0.10 | 80 | 1016.6 |
| 20260905032233 | 14 | 109 | 0.0 | 0.0 | 0.00 | 0.20 | 0.10 | 80 | 1016.5 |
| 20260905031739 | 14 | 109 | 0.0 | 0.0 | 0.00 | 0.25 | 0.10 | 79 | 1016.5 |
| 20260905031227 | 15 | 109 | 0.0 | 0.0 | 0.00 | 0.25 | 0.10 | 78 | 1016.5 |
| 20260905030731 | 15 | 109 | 0.0 | 3.2 | 0.00 | 0.25 | 0.10 | 78 | 1016.5 |
| 20260905030238 | 15 | 109 | 0.0 | 3.2 | 0.00 | 0.25 | 0.10 | 78 | 1016.4 |
| 20260905025725 | 15 | 109 | 0.0 | 1.6 | 0.00 | 0.25 | 0.10 | 77 | 1016.4 |
| 20260905025233 | 15 | 109 | 0.0 | 1.6 | 0.00 | 0.25 | 0.10 | 76 | 1016.4 |
| 20260905024739 | 15 | 109 | 0.0 | 0.0 | 0.00 | 0.25 | 0.10 | 76 | 1016.4 |
| 20260905024225 | 15 | 109 | 0.0 | 0.0 | 0.00 | 0.25 | 0.10 | 76 | 1016.4 |
| 20260905023727 | 15 | 109 | 0.0 | 0.0 | 0.00 | 0.25 | 0.10 | 75 | 1016.3 |
| 20260905023234 | 15 | 109 | 0.0 | 3.2 | 0.00 | 0.25 | 0.10 | 75 | 1016.4 |
| 20260905022721 | 15 | 109 | 0.0 | 3.2 | 0.00 | 0.25 | 0.10 | 75 | 1016.2 |
| 20260905022311 | 16 | 109 | 0.0 | 3.2 | 0.00 | 0.25 | 0.10 | 74 | 1016.2 |
| 20260905021805 | 16 | 109 | 0.0 | 3.2 | 0.00 | 0.33 | 0.10 | 74 | 1016.1 |
| 20260905021733 | 16 | 109 | 0.0 | 3.2 | 0.00 | 0.33 | 0.10 | 74 | 1016.1 |
| 20260905020736 | 16 | 109 | 0.0 | 3.2 | 0.00 | 0.33 | 0.10 | 72 | 1016.2 |
| 20260905020243 | 16 | 109 | 0.0 | 3.2 | 0.00 | 0.33 | 0.10 | 72 | 1016.2 |
| 20260905015725 | 16 | 98 | 0.0 | 1.6 | 0.00 | 0.33 | 0.10 | 71 | 1016.3 |
| 20260905015233 | 16 | 98 | 1.6 | 3.2 | 0.00 | 0.33 | 0.10 | 70 | 1016.4 |
| 20260905014739 | 16 | 98 | 0.0 | 3.2 | 0.00 | 0.33 | 0.10 | 70 | 1016.3 |
| 20260905014226 | 16 | 101 | 0.0 | 3.2 | 0.00 | 0.33 | 0.10 | 70 | 1016.3 |
| 20260905013733 | 16 | 96 | 1.6 | 3.2 | 0.00 | 0.33 | 0.10 | 70 | 1016.3 |
| 20260905013224 | 16 | 118 | 1.6 | 3.2 | 0.00 | 0.33 | 0.10 | 70 | 1016.3 |
| 20260905012753 | 16 | 79 | 0.0 | 6.4 | 0.00 | 0.33 | 0.10 | 70 | 1016.3 |
| 20260905012229 | 16 | 103 | 1.6 | 6.4 | 0.00 | 0.33 | 0.10 | 69 | 1016.3 |
| 20260905011755 | 17 | 76 | 3.2 | 8.0 | 0.00 | 0.38 | 0.10 | 68 | 1016.1 |
| 20260905011230 | 17 | 81 | 4.8 | 9.7 | 0.00 | 0.38 | 0.10 | 68 | 1016.0 |
| 20260905010737 | 17 | 35 | 3.2 | 9.7 | 0.00 | 0.38 | 0.10 | 64 | 1016.0 |
| 20260905010304 | 17 | 88 | 4.8 | 9.7 | 0.00 | 0.38 | 0.10 | 63 | 1015.8 |
| 20260905010232 | 17 | 88 | 4.8 | 9.7 | 0.00 | 0.38 | 0.10 | 63 | 1015.8 |
| 20260905005739 | 17 | 83 | 3.2 | 9.7 | 0.00 | 0.38 | 0.10 | 62 | 1015.7 |
| 20260905005227 | 17 | 94 | 6.4 | 11.3 | 0.00 | 0.38 | 0.10 | 60 | 1015.7 |
| 20260905004733 | 18 | 80 | 3.2 | 4.8 | 0.00 | 0.38 | 0.10 | 61 | 1015.6 |
| 20260905004220 | 18 | 89 | 1.6 | 11.3 | 0.00 | 0.38 | 0.10 | 61 | 1015.6 |
| 20260905003807 | 18 | 66 | 4.8 | 11.3 | 0.00 | 0.38 | 0.10 | 61 | 1015.6 |
| 20260905003237 | 18 | 39 | 0.0 | 4.8 | 0.00 | 0.38 | 0.10 | 65 | 1015.6 |
| 20260905002804 | 18 | 93 | 1.6 | 4.8 | 0.00 | 0.38 | 0.10 | 65 | 1015.6 |
| 20260905002732 | 18 | 93 | 1.6 | 4.8 | 0.00 | 0.38 | 0.10 | 65 | 1015.6 |
| 20260905002221 | 18 | 55 | 1.6 | 4.8 | 0.00 | 0.38 | 0.10 | 66 | 1015.6 |
| 20260905001731 | 18 | 44 | 3.2 | 6.4 | 0.00 | 0.38 | 0.10 | 64 | 1015.6 |
| 20260905001238 | 18 | 93 | 4.8 | 6.4 | 0.00 | 0.38 | 0.10 | 60 | 1015.5 |
| 20260905000725 | 18 | 78 | 3.2 | 9.7 | 0.00 | 0.38 | 0.10 | 60 | 1015.7 |
| 20260905000233 | 18 | 36 | 3.2 | 9.7 | 0.00 | 0.38 | 0.10 | 58 | 1015.6 |
| 20260904235739 | 19 | 81 | 3.2 | 11.3 | 0.00 | 0.38 | 0.10 | 59 | 1015.5 |
| 20260904235307 | 19 | 88 | 1.6 | 12.9 | 0.00 | 0.38 | 0.10 | 60 | 1015.5 |
| 20260904234738 | 20 | 107 | 4.8 | 12.9 | 0.00 | 0.38 | 0.10 | 57 | 1015.6 |
| 20260904234225 | 20 | 97 | 1.6 | 3.2 | 0.03 | 0.38 | 0.10 | 54 | 1015.6 |
| 20260904233732 | 20 | 329 | 0.0 | 3.2 | 0.03 | 0.38 | 0.10 | 54 | 1015.6 |
| 20260904233239 | 20 | 303 | 0.0 | 3.2 | 0.03 | 0.38 | 0.10 | 53 | 1015.5 |
| 20260904232726 | 20 | 197 | 0.0 | 3.2 | 0.03 | 0.38 | 0.10 | 53 | 1015.5 |
| 20260904232238 | 20 | 284 | 0.0 | 3.2 | 0.03 | 0.38 | 0.10 | 55 | 1015.4 |
| 20260904231725 | 20 | 282 | 1.6 | 4.8 | 0.03 | 0.38 | 0.10 | 54 | 1015.4 |
| 20260904231252 | 20 | 42 | 1.6 | 4.8 | 0.03 | 0.38 | 0.10 | 53 | 1015.3 |
| 20260904230727 | 20 | 355 | 1.6 | 3.2 | 0.03 | 0.38 | 0.10 | 54 | 1015.2 |
| 20260904230234 | 20 | 146 | 0.0 | 3.2 | 0.03 | 0.38 | 0.10 | 56 | 1015.2 |
| 20260904225801 | 20 | 163 | 0.0 | 3.2 | 0.03 | 0.38 | 0.10 | 56 | 1015.2 |
| 20260904225238 | 20 | 173 | 1.6 | 4.8 | 0.03 | 0.38 | 0.10 | 57 | 1015.2 |
| 20260904224805 | 20 | 272 | 1.6 | 4.8 | 0.03 | 0.38 | 0.10 | 55 | 1015.2 |
| 20260904224301 | 20 | 304 | 0.0 | 6.4 | 0.00 | 0.36 | 0.08 | 56 | 1015.0 |
| 20260904223756 | 20 | 315 | 1.6 | 6.4 | 0.00 | 0.36 | 0.08 | 55 | 1014.9 |
| 20260904223231 | 20 | 270 | 0.0 | 6.4 | 0.00 | 0.36 | 0.08 | 56 | 1014.9 |
| 20260904222758 | 20 | 323 | 1.6 | 4.8 | 0.00 | 0.36 | 0.08 | 56 | 1014.9 |
| 20260904222726 | 20 | 323 | 1.6 | 4.8 | 0.00 | 0.36 | 0.08 | 56 | 1014.9 |
| 20260904222235 | 20 | 136 | 1.6 | 3.2 | 0.00 | 0.36 | 0.08 | 55 | 1014.9 |
| 20260904221738 | 20 | 325 | 0.0 | 4.8 | 0.00 | 0.43 | 0.08 | 58 | 1015.0 |
| 20260904221225 | 20 | 314 | 1.6 | 4.8 | 0.00 | 0.43 | 0.08 | 58 | 1015.0 |
| 20260904220752 | 20 | 315 | 3.2 | 4.8 | 0.00 | 0.43 | 0.08 | 58 | 1014.9 |
| 20260904220227 | 20 | 248 | 3.2 | 4.8 | 0.00 | 0.43 | 0.08 | 57 | 1015.0 |
| 20260904215754 | 20 | 293 | 3.2 | 8.0 | 0.00 | 0.43 | 0.08 | 55 | 1015.1 |
| 20260904215722 | 20 | 293 | 3.2 | 8.0 | 0.00 | 0.43 | 0.08 | 55 | 1015.1 |
| 20260904215229 | 20 | 309 | 3.2 | 8.0 | 0.00 | 0.43 | 0.08 | 53 | 1015.0 |
| 20260904214739 | 20 | 244 | 1.6 | 11.3 | 0.00 | 0.43 | 0.08 | 58 | 1014.9 |
| 20260904214307 | 20 | 286 | 4.8 | 11.3 | 0.00 | 0.43 | 0.08 | 55 | 1014.9 |
| 20260904213722 | 21 | 287 | 4.8 | 6.4 | 0.00 | 0.43 | 0.08 | 54 | 1014.9 |
| 20260904213310 | 21 | 312 | 3.2 | 6.4 | 0.00 | 0.43 | 0.08 | 53 | 1014.9 |
| 20260904212725 | 20 | 23 | 1.6 | 6.4 | 0.00 | 0.43 | 0.08 | 56 | 1014.7 |
| 20260904212253 | 20 | 314 | 3.2 | 6.4 | 0.00 | 0.43 | 0.08 | 56 | 1014.8 |
| 20260904211807 | 20 | 156 | 3.2 | 9.7 | 0.00 | 0.43 | 0.08 | 56 | 1014.8 |
| 20260904211735 | 20 | 156 | 3.2 | 9.7 | 0.00 | 0.43 | 0.08 | 56 | 1014.8 |
| 20260904211303 | 20 | 328 | 4.8 | 9.7 | 0.00 | 0.43 | 0.08 | 56 | 1014.7 |
| 20260904210758 | 20 | 257 | 1.6 | 6.4 | 0.00 | 0.43 | 0.08 | 57 | 1014.7 |
| 20260904210726 | 20 | 257 | 1.6 | 6.4 | 0.00 | 0.43 | 0.08 | 57 | 1014.7 |
| 20260904210232 | 20 | 262 | 3.2 | 6.4 | 0.00 | 0.43 | 0.08 | 57 | 1014.7 |
| 20260904205739 | 20 | 74 | 1.6 | 8.0 | 0.00 | 0.43 | 0.08 | 59 | 1014.7 |
| 20260904205227 | 20 | 350 | 3.2 | 8.0 | 0.00 | 0.43 | 0.08 | 58 | 1014.7 |
| 20260904204731 | 19 | 131 | 1.6 | 11.3 | 0.00 | 0.43 | 0.08 | 59 | 1014.7 |
| 20260904204230 | 19 | 249 | 6.4 | 11.3 | 0.00 | 0.43 | 0.08 | 58 | 1014.9 |
| 20260904203736 | 19 | 244 | 1.6 | 11.3 | 0.00 | 0.43 | 0.08 | 59 | 1014.8 |
| 20260904203223 | 19 | 127 | 1.6 | 11.3 | 0.00 | 0.43 | 0.08 | 59 | 1014.8 |
| 20260904202730 | 20 | 278 | 1.6 | 6.4 | 0.00 | 0.43 | 0.08 | 62 | 1014.8 |
| 20260904202259 | 19 | 170 | 0.0 | 4.8 | 0.00 | 0.43 | 0.08 | 63 | 1014.9 |
| 20260904201737 | 18 | 317 | 3.2 | 4.8 | 0.00 | 0.43 | 0.08 | 63 | 1014.8 |
| 20260904201304 | 18 | 89 | 0.0 | 4.8 | 0.00 | 0.43 | 0.08 | 63 | 1014.8 |
| 20260904201232 | 18 | 89 | 0.0 | 4.8 | 0.00 | 0.43 | 0.08 | 63 | 1014.8 |
| 20260904200739 | 18 | 170 | 1.6 | 8.0 | 0.00 | 0.43 | 0.08 | 63 | 1014.7 |
| 20260904200226 | 18 | 31 | 4.8 | 12.9 | 0.00 | 0.43 | 0.08 | 64 | 1014.9 |
| 20260904195733 | 18 | 346 | 3.2 | 16.1 | 0.00 | 0.43 | 0.08 | 67 | 1014.9 |
| 20260904195221 | 18 | 227 | 4.8 | 11.3 | 0.00 | 0.43 | 0.08 | 66 | 1014.8 |
| 20260904194727 | 18 | 252 | 1.6 | 6.4 | 0.00 | 0.43 | 0.08 | 67 | 1014.8 |
| 20260904194234 | 18 | 254 | 3.2 | 6.4 | 0.00 | 0.43 | 0.08 | 64 | 1014.9 |
| 20260904193720 | 18 | 65 | 1.6 | 6.4 | 0.00 | 0.43 | 0.08 | 66 | 1015.0 |
| 20260904193308 | 18 | 22 | 3.2 | 8.0 | 0.00 | 0.43 | 0.08 | 66 | 1014.8 |
| 20260904192723 | 18 | 35 | 3.2 | 8.0 | 0.00 | 0.43 | 0.08 | 67 | 1014.9 |
| 20260904192231 | 18 | 34 | 1.6 | 4.8 | 0.00 | 0.43 | 0.08 | 69 | 1014.8 |
| 20260904191758 | 17 | 336 | 1.6 | 9.7 | 0.00 | 0.43 | 0.08 | 69 | 1014.9 |
| 20260904191237 | 17 | 311 | 1.6 | 9.7 | 0.00 | 0.43 | 0.08 | 71 | 1014.9 |
| 20260904190722 | 17 | 331 | 1.6 | 4.8 | 0.00 | 0.43 | 0.08 | 71 | 1014.9 |
| 20260904190228 | 17 | 317 | 0.0 | 6.4 | 0.00 | 0.43 | 0.08 | 74 | 1015.1 |
| 20260904185735 | 17 | 247 | 4.8 | 6.4 | 0.00 | 0.43 | 0.08 | 73 | 1015.1 |
| 20260904185223 | 17 | 264 | 1.6 | 6.4 | 0.00 | 0.43 | 0.08 | 72 | 1014.9 |
| 20260904184809 | 17 | 244 | 3.2 | 6.4 | 0.00 | 0.43 | 0.08 | 73 | 1015.0 |
| 20260904184224 | 17 | 252 | 3.2 | 6.4 | 0.00 | 0.43 | 0.08 | 74 | 1014.9 |
| 20260904183731 | 17 | 202 | 1.6 | 6.4 | 0.00 | 0.43 | 0.08 | 75 | 1014.8 |
| 20260904183238 | 17 | 271 | 1.6 | 4.8 | 0.00 | 0.43 | 0.08 | 74 | 1014.8 |
| 20260904182724 | 16 | 121 | 1.6 | 4.8 | 0.00 | 0.43 | 0.08 | 77 | 1014.8 |
| 20260904182312 | 16 | 295 | 3.2 | 4.8 | 0.00 | 0.43 | 0.08 | 76 | 1014.8 |
| 20260904181726 | 16 | 223 | 3.2 | 4.8 | 0.00 | 0.43 | 0.08 | 79 | 1014.8 |
| 20260904181237 | 16 | 268 | 1.6 | 4.8 | 0.00 | 0.43 | 0.08 | 77 | 1014.9 |
| 20260904180739 | 16 | 283 | 3.2 | 4.8 | 0.00 | 0.43 | 0.08 | 78 | 1014.8 |
| 20260904180226 | 16 | 256 | 0.0 | 4.8 | 0.00 | 0.43 | 0.08 | 79 | 1014.8 |
| 20260904175754 | 16 | 258 | 3.2 | 6.4 | 0.00 | 0.43 | 0.08 | 80 | 1014.8 |
| 20260904175230 | 16 | 282 | 3.2 | 6.4 | 0.00 | 0.43 | 0.08 | 80 | 1014.8 |
| 20260904174736 | 16 | 248 | 1.6 | 6.4 | 0.03 | 0.43 | 0.08 | 82 | 1014.7 |
| 20260904174223 | 15 | 163 | 0.0 | 3.2 | 0.03 | 0.43 | 0.08 | 82 | 1014.8 |
| 20260904173729 | 15 | 131 | 1.6 | 3.2 | 0.03 | 0.43 | 0.08 | 83 | 1014.9 |
| 20260904173236 | 15 | 173 | 0.0 | 4.8 | 0.03 | 0.43 | 0.08 | 85 | 1014.9 |
| 20260904172803 | 15 | 270 | 3.2 | 4.8 | 0.03 | 0.43 | 0.08 | 83 | 1014.9 |
| 20260904172732 | 15 | 270 | 3.2 | 4.8 | 0.03 | 0.43 | 0.08 | 83 | 1014.9 |
| 20260904172239 | 15 | 252 | 3.2 | 4.8 | 0.03 | 0.43 | 0.08 | 84 | 1015.0 |
| 20260904171725 | 15 | 94 | 1.6 | 3.2 | 0.03 | 0.43 | 0.08 | 87 | 1014.9 |
| 20260904171236 | 14 | 78 | 1.6 | 3.2 | 0.03 | 0.43 | 0.08 | 87 | 1014.9 |
| 20260904170723 | 14 | 100 | 0.0 | 1.6 | 0.03 | 0.43 | 0.08 | 87 | 1014.8 |
| 20260904170230 | 14 | 42 | 0.0 | 0.0 | 0.03 | 0.43 | 0.08 | 88 | 1014.8 |
| 20260904165737 | 13 | 42 | 0.0 | 0.0 | 0.03 | 0.43 | 0.08 | 88 | 1014.8 |
| 20260904165225 | 13 | 106 | 0.0 | 0.0 | 0.00 | 0.41 | 0.05 | 89 | 1014.8 |
| 20260904164733 | 13 | 106 | 0.0 | 0.0 | 0.00 | 0.41 | 0.05 | 89 | 1014.7 |
| 20260904164238 | 13 | 106 | 0.0 | 0.0 | 0.00 | 0.41 | 0.05 | 89 | 1014.7 |
| 20260904163725 | 13 | 106 | 0.0 | 0.0 | 0.00 | 0.41 | 0.05 | 89 | 1014.6 |
| 20260904163232 | 13 | 106 | 0.0 | 0.0 | 0.00 | 0.41 | 0.05 | 90 | 1014.6 |
| 20260904162800 | 13 | 106 | 0.0 | 0.0 | 0.00 | 0.41 | 0.05 | 90 | 1014.7 |
| 20260904162257 | 13 | 106 | 0.0 | 0.0 | 0.00 | 0.41 | 0.05 | 89 | 1014.6 |
| 20260904161731 | 13 | 106 | 0.0 | 0.0 | 0.00 | 0.41 | 0.05 | 92 | 1014.6 |
| 20260904161257 | 13 | 106 | 0.0 | 0.0 | 0.00 | 0.41 | 0.05 | 93 | 1014.6 |
| 20260904160731 | 12 | 106 | 0.0 | 0.0 | 0.00 | 0.41 | 0.05 | 93 | 1014.5 |
| 20260904160238 | 12 | 106 | 0.0 | 0.0 | 0.00 | 0.41 | 0.05 | 92 | 1014.5 |
| 20260904155725 | 12 | 106 | 0.0 | 0.0 | 0.00 | 0.41 | 0.05 | 92 | 1014.6 |
| 20260904155230 | 12 | 106 | 0.0 | 0.0 | 0.00 | 0.41 | 0.05 | 93 | 1014.6 |
| 20260904154735 | 12 | 106 | 0.0 | 0.0 | 0.00 | 0.41 | 0.05 | 91 | 1014.6 |
| 20260904154222 | 12 | 106 | 0.0 | 0.0 | 0.00 | 0.41 | 0.05 | 93 | 1014.6 |
| 20260904153729 | 12 | 106 | 0.0 | 0.0 | 0.00 | 0.41 | 0.05 | 93 | 1014.5 |
| 20260904153236 | 12 | 106 | 0.0 | 0.0 | 0.00 | 0.41 | 0.05 | 94 | 1014.4 |
| 20260904152723 | 12 | 106 | 0.0 | 0.0 | 0.00 | 0.41 | 0.05 | 94 | 1014.3 |
| 20260904152231 | 12 | 105 | 0.0 | 3.2 | 0.00 | 0.41 | 0.05 | 94 | 1014.3 |
| 20260904151721 | 12 | 111 | 1.6 | 3.2 | 0.00 | 0.41 | 0.05 | 95 | 1014.3 |
| 20260904151228 | 12 | 105 | 0.0 | 3.2 | 0.00 | 0.41 | 0.05 | 96 | 1014.1 |
| 20260904150735 | 12 | 144 | 0.0 | 3.2 | 0.00 | 0.41 | 0.05 | 96 | 1014.2 |
| 20260904150222 | 12 | 126 | 0.0 | 0.0 | 0.00 | 0.41 | 0.05 | 96 | 1014.1 |
| 20260904145729 | 12 | 200 | 0.0 | 0.0 | 0.00 | 0.41 | 0.05 | 96 | 1014.1 |
| 20260904145237 | 12 | 232 | 0.0 | 0.0 | 0.00 | 0.41 | 0.05 | 96 | 1014.0 |
| 20260904144803 | 11 | 232 | 0.0 | 0.0 | 0.00 | 0.41 | 0.05 | 96 | 1013.9 |
| 20260904144238 | 11 | 233 | 0.0 | 0.0 | 0.00 | 0.41 | 0.05 | 96 | 1013.9 |
| 20260904143725 | 11 | 233 | 0.0 | 0.0 | 0.00 | 0.41 | 0.05 | 96 | 1013.8 |
| 20260904143252 | 11 | 232 | 0.0 | 0.0 | 0.00 | 0.41 | 0.05 | 96 | 1013.8 |
| 20260904142807 | 10 | 233 | 0.0 | 0.0 | 0.03 | 0.41 | 0.05 | 96 | 1013.8 |
| 20260904142735 | 10 | 233 | 0.0 | 0.0 | 0.03 | 0.41 | 0.05 | 96 | 1013.8 |
| 20260904142223 | 10 | 233 | 0.0 | 0.0 | 0.03 | 0.41 | 0.05 | 96 | 1013.9 |
| 20260904141729 | 10 | 233 | 0.0 | 0.0 | 0.03 | 0.48 | 0.05 | 96 | 1013.8 |
| 20260904141256 | 10 | 233 | 0.0 | 0.0 | 0.03 | 0.48 | 0.05 | 96 | 1013.8 |
| 20260904141224 | 10 | 233 | 0.0 | 0.0 | 0.03 | 0.48 | 0.05 | 96 | 1013.8 |
| 20260904140811 | 10 | 232 | 0.0 | 0.0 | 0.03 | 0.48 | 0.05 | 95 | 1013.6 |
| 20260904140739 | 10 | 232 | 0.0 | 0.0 | 0.03 | 0.48 | 0.05 | 95 | 1013.6 |
| 20260904140230 | 10 | 232 | 0.0 | 0.0 | 0.03 | 0.48 | 0.05 | 95 | 1013.6 |
| 20260904135737 | 10 | 233 | 0.0 | 0.0 | 0.03 | 0.48 | 0.05 | 95 | 1013.5 |
| 20260904135225 | 10 | 232 | 0.0 | 0.0 | 0.03 | 0.48 | 0.05 | 95 | 1013.4 |
| 20260904134731 | 10 | 233 | 0.0 | 0.0 | 0.03 | 0.48 | 0.05 | 95 | 1013.4 |
| 20260904134238 | 10 | 232 | 0.0 | 0.0 | 0.03 | 0.48 | 0.05 | 96 | 1013.3 |
| 20260904133725 | 10 | 233 | 0.0 | 0.0 | 0.03 | 0.48 | 0.05 | 96 | 1013.3 |
| 20260904133232 | 10 | 232 | 0.0 | 0.0 | 0.03 | 0.48 | 0.05 | 96 | 1013.2 |
| 20260904132739 | 10 | 233 | 0.0 | 0.0 | 0.00 | 0.46 | 0.03 | 95 | 1013.1 |
| 20260904132307 | 10 | 233 | 0.0 | 0.0 | 0.00 | 0.46 | 0.03 | 95 | 1013.2 |
| 20260904132235 | 10 | 233 | 0.0 | 0.0 | 0.00 | 0.46 | 0.03 | 95 | 1013.2 |
| 20260904131721 | 10 | 233 | 0.0 | 0.0 | 0.00 | 0.51 | 0.03 | 95 | 1013.1 |
| 20260904131228 | 10 | 232 | 0.0 | 0.0 | 0.00 | 0.51 | 0.03 | 95 | 1013.1 |
| 20260904130739 | 10 | 232 | 0.0 | 0.0 | 0.00 | 0.51 | 0.03 | 95 | 1013.1 |
| 20260904130226 | 10 | 233 | 0.0 | 0.0 | 0.00 | 0.51 | 0.03 | 95 | 1013.1 |
| 20260904125753 | 10 | 232 | 0.0 | 0.0 | 0.00 | 0.51 | 0.03 | 95 | 1013.0 |
| 20260904125310 | 10 | 232 | 0.0 | 0.0 | 0.00 | 0.51 | 0.03 | 95 | 1013.0 |
| 20260904124724 | 10 | 233 | 0.0 | 0.0 | 0.00 | 0.51 | 0.03 | 95 | 1013.0 |
| 20260904124231 | 10 | 232 | 0.0 | 0.0 | 0.00 | 0.51 | 0.03 | 95 | 1013.0 |
| 20260904123758 | 10 | 232 | 0.0 | 0.0 | 0.00 | 0.51 | 0.03 | 95 | 1012.9 |
| 20260904123253 | 10 | 233 | 0.0 | 0.0 | 0.00 | 0.51 | 0.03 | 95 | 1013.0 |
| 20260904122728 | 10 | 233 | 0.0 | 0.0 | 0.00 | 0.51 | 0.03 | 95 | 1012.9 |
| 20260904122236 | 10 | 232 | 0.0 | 0.0 | 0.00 | 0.51 | 0.03 | 95 | 1012.8 |
| 20260904121724 | 10 | 232 | 0.0 | 0.0 | 0.00 | 0.53 | 0.03 | 95 | 1012.9 |
| 20260904121230 | 10 | 232 | 0.0 | 0.0 | 0.00 | 0.53 | 0.03 | 95 | 1012.7 |
| 20260904120737 | 10 | 232 | 0.0 | 0.0 | 0.00 | 0.53 | 0.03 | 95 | 1012.7 |
| 20260904120224 | 10 | 233 | 0.0 | 0.0 | 0.00 | 0.53 | 0.03 | 95 | 1012.6 |
| 20260904115736 | 10 | 232 | 0.0 | 0.0 | 0.00 | 0.53 | 0.03 | 95 | 1012.6 |
| 20260904115221 | 10 | 232 | 0.0 | 0.0 | 0.00 | 0.53 | 0.03 | 95 | 1012.6 |
| 20260904114727 | 10 | 232 | 0.0 | 0.0 | 0.00 | 0.53 | 0.03 | 95 | 1012.5 |
| 20260904114234 | 10 | 233 | 0.0 | 0.0 | 0.00 | 0.53 | 0.03 | 95 | 1012.4 |
| 20260904113721 | 11 | 233 | 0.0 | 0.0 | 0.00 | 0.53 | 0.03 | 95 | 1012.4 |
| 20260904113308 | 11 | 232 | 0.0 | 0.0 | 0.00 | 0.53 | 0.03 | 95 | 1012.3 |
| 20260904113236 | 11 | 232 | 0.0 | 0.0 | 0.00 | 0.53 | 0.03 | 95 | 1012.3 |
| 20260904112723 | 11 | 232 | 0.0 | 0.0 | 0.00 | 0.53 | 0.03 | 95 | 1012.3 |
| 20260904112231 | 11 | 233 | 0.0 | 0.0 | 0.03 | 0.53 | 0.03 | 95 | 1012.2 |
| 20260904111737 | 11 | 233 | 0.0 | 0.0 | 0.03 | 0.56 | 0.03 | 95 | 1012.2 |
| 20260904111224 | 11 | 233 | 0.0 | 0.0 | 0.03 | 0.56 | 0.03 | 95 | 1012.4 |
| 20260904110752 | 11 | 232 | 0.0 | 0.0 | 0.03 | 0.56 | 0.03 | 95 | 1012.3 |
| 20260904110227 | 11 | 233 | 0.0 | 0.0 | 0.03 | 0.56 | 0.03 | 95 | 1012.3 |
| 20260904105738 | 11 | 233 | 0.0 | 0.0 | 0.03 | 0.56 | 0.03 | 95 | 1012.2 |
| 20260904105225 | 11 | 233 | 0.0 | 0.0 | 0.03 | 0.56 | 0.03 | 95 | 1012.3 |
| 20260904104731 | 11 | 232 | 0.0 | 0.0 | 0.03 | 0.56 | 0.03 | 95 | 1012.3 |
| 20260904103725 | 11 | 232 | 0.0 | 0.0 | 0.03 | 0.56 | 0.03 | 95 | 1012.2 |
| 20260904103232 | 11 | 232 | 0.0 | 0.0 | 0.03 | 0.56 | 0.03 | 95 | 1012.1 |
| 20260904102758 | 11 | 232 | 0.0 | 0.0 | 0.03 | 0.56 | 0.03 | 95 | 1012.1 |
| 20260904102726 | 11 | 232 | 0.0 | 0.0 | 0.03 | 0.56 | 0.03 | 95 | 1012.1 |
| 20260904102254 | 11 | 233 | 0.0 | 0.0 | 0.00 | 0.53 | 0.00 | 95 | 1012.1 |
| 20260904101808 | 11 | 233 | 0.0 | 0.0 | 0.00 | 0.53 | 0.00 | 95 | 1012.1 |
| 20260904101224 | 11 | 233 | 0.0 | 0.0 | 0.00 | 0.53 | 0.00 | 95 | 1012.2 |
| 20260904100730 | 11 | 232 | 0.0 | 0.0 | 0.00 | 0.53 | 0.00 | 95 | 1012.1 |
| 20260904100232 | 11 | 233 | 0.0 | 0.0 | 0.00 | 0.53 | 0.00 | 95 | 1012.0 |
| 20260904095759 | 11 | 232 | 0.0 | 0.0 | 0.00 | 0.53 | 0.00 | 95 | 1011.9 |
| 20260904095235 | 11 | 233 | 0.0 | 0.0 | 0.00 | 0.53 | 0.00 | 95 | 1012.0 |
| 20260904094725 | 11 | 233 | 0.0 | 0.0 | 0.00 | 0.53 | 0.00 | 95 | 1012.0 |
| 20260904094232 | 11 | 233 | 0.0 | 0.0 | 0.00 | 0.53 | 0.00 | 95 | 1012.0 |
| 20260904093739 | 11 | 233 | 0.0 | 0.0 | 0.00 | 0.53 | 0.00 | 95 | 1012.0 |
| 20260904093226 | 11 | 232 | 0.0 | 0.0 | 0.00 | 0.53 | 0.00 | 95 | 1012.0 |
| 20260904092813 | 11 | 232 | 0.0 | 0.0 | 0.00 | 0.53 | 0.00 | 95 | 1012.0 |
| 20260904092306 | 11 | 233 | 0.0 | 0.0 | 0.00 | 0.53 | 0.00 | 95 | 1012.1 |
| 20260904092233 | 11 | 233 | 0.0 | 0.0 | 0.00 | 0.53 | 0.00 | 95 | 1012.1 |
| 20260904091740 | 11 | 233 | 0.0 | 0.0 | 0.00 | 0.53 | 0.00 | 95 | 1012.0 |
| 20260904091226 | 11 | 232 | 0.0 | 0.0 | 0.00 | 0.53 | 0.00 | 95 | 1012.0 |
| 20260904090733 | 11 | 232 | 0.0 | 0.0 | 0.00 | 0.53 | 0.00 | 95 | 1012.1 |
| 20260904090220 | 11 | 232 | 0.0 | 0.0 | 0.03 | 0.53 | 0.00 | 95 | 1012.0 |
| 20260904085727 | 11 | 233 | 0.0 | 0.0 | 0.03 | 0.53 | 0.00 | 95 | 1012.1 |
| 20260904085235 | 11 | 232 | 0.0 | 3.2 | 0.03 | 0.53 | 0.00 | 95 | 1012.0 |
| 20260904084725 | 11 | 163 | 0.0 | 3.2 | 0.03 | 0.53 | 0.00 | 95 | 1012.1 |
| 20260904084232 | 11 | 163 | 0.0 | 3.2 | 0.03 | 0.53 | 0.00 | 95 | 1012.1 |
| 20260904083734 | 11 | 163 | 1.6 | 3.2 | 0.03 | 0.53 | 0.00 | 95 | 1012.1 |
| 20260904083221 | 11 | 163 | 0.0 | 0.0 | 0.03 | 0.53 | 0.00 | 95 | 1012.2 |
| 20260904082736 | 11 | 163 | 0.0 | 1.6 | 0.03 | 0.53 | 0.00 | 95 | 1012.2 |
| 20260904082225 | 11 | 163 | 0.0 | 1.6 | 0.03 | 0.53 | 0.00 | 95 | 1012.2 |
| 20260904081810 | 11 | 163 | 1.6 | 1.6 | 0.03 | 0.56 | 0.53 | 95 | 1012.1 |
| 20260904081739 | 11 | 163 | 1.6 | 1.6 | 0.03 | 0.56 | 0.53 | 95 | 1012.1 |
| 20260904081306 | 11 | 163 | 1.6 | 3.2 | 0.03 | 0.56 | 0.53 | 95 | 1011.9 |
| 20260904081234 | 11 | 163 | 1.6 | 3.2 | 0.03 | 0.56 | 0.53 | 95 | 1011.9 |
| 20260904080720 | 11 | 259 | 0.0 | 3.2 | 0.00 | 0.53 | 0.51 | 95 | 1011.9 |
| 20260904080308 | 11 | 260 | 1.6 | 3.2 | 0.00 | 0.53 | 0.51 | 95 | 1011.7 |
| 20260904075724 | 11 | 90 | 1.6 | 3.2 | 0.00 | 0.53 | 0.51 | 95 | 1011.8 |
| 20260904075232 | 11 | 90 | 0.0 | 0.0 | 0.00 | 0.53 | 0.51 | 95 | 1012.1 |
| 20260904074738 | 11 | 90 | 0.0 | 0.0 | 0.00 | 0.53 | 0.51 | 95 | 1012.0 |
| 20260904074224 | 11 | 90 | 0.0 | 0.0 | 0.00 | 0.53 | 0.51 | 95 | 1012.1 |
| 20260904073731 | 11 | 90 | 0.0 | 0.0 | 0.00 | 0.53 | 0.51 | 95 | 1012.1 |
| 20260904073258 | 11 | 90 | 0.0 | 0.0 | 0.00 | 0.53 | 0.51 | 94 | 1012.1 |
| 20260904073226 | 11 | 90 | 0.0 | 0.0 | 0.00 | 0.53 | 0.51 | 94 | 1012.1 |
| 20260904072753 | 11 | 90 | 0.0 | 0.0 | 0.00 | 0.53 | 0.51 | 95 | 1012.2 |
| 20260904072233 | 11 | 90 | 0.0 | 0.0 | 0.00 | 0.53 | 0.51 | 95 | 1012.3 |
| 20260904071739 | 11 | 90 | 0.0 | 0.0 | 0.03 | 0.53 | 0.51 | 95 | 1012.3 |
| 20260904071226 | 12 | 90 | 0.0 | 0.0 | 0.03 | 0.53 | 0.51 | 94 | 1012.3 |
| 20260904070721 | 12 | 90 | 0.0 | 0.0 | 0.03 | 0.53 | 0.51 | 95 | 1012.3 |
| 20260904070228 | 12 | 90 | 0.0 | 0.0 | 0.03 | 0.53 | 0.51 | 95 | 1012.3 |
| 20260904065735 | 12 | 90 | 0.0 | 0.0 | 0.03 | 0.53 | 0.51 | 95 | 1012.2 |
| 20260904065306 | 12 | 90 | 0.0 | 0.0 | 0.03 | 0.53 | 0.51 | 94 | 1012.3 |
| 20260904064738 | 12 | 90 | 0.0 | 0.0 | 0.03 | 0.53 | 0.51 | 94 | 1012.2 |
| 20260904064225 | 12 | 90 | 0.0 | 0.0 | 0.03 | 0.53 | 0.51 | 95 | 1012.3 |
| 20260904063727 | 12 | 90 | 0.0 | 0.0 | 0.03 | 0.53 | 0.51 | 95 | 1012.3 |
| 20260904063234 | 12 | 90 | 0.0 | 0.0 | 0.03 | 0.53 | 0.51 | 94 | 1012.2 |
| 20260904062802 | 12 | 90 | 0.0 | 0.0 | 0.03 | 0.53 | 0.51 | 94 | 1012.2 |
| 20260904062730 | 12 | 90 | 0.0 | 0.0 | 0.03 | 0.53 | 0.51 | 94 | 1012.2 |
| 20260904062238 | 12 | 90 | 0.0 | 0.0 | 0.03 | 0.53 | 0.51 | 95 | 1012.2 |
| 20260904061728 | 12 | 90 | 0.0 | 0.0 | 0.00 | 0.51 | 0.48 | 95 | 1012.2 |
| 20260904061235 | 12 | 102 | 0.0 | 0.0 | 0.00 | 0.51 | 0.48 | 95 | 1012.2 |
| 20260904060723 | 12 | 69 | 0.0 | 0.0 | 0.00 | 0.51 | 0.48 | 95 | 1012.2 |
| 20260904060310 | 12 | 69 | 0.0 | 0.0 | 0.00 | 0.51 | 0.48 | 94 | 1012.2 |
| 20260904060238 | 12 | 69 | 0.0 | 0.0 | 0.00 | 0.51 | 0.48 | 94 | 1012.2 |
| 20260904055725 | 12 | 69 | 0.0 | 0.0 | 0.00 | 0.51 | 0.48 | 94 | 1012.1 |
| 20260904055234 | 12 | 69 | 0.0 | 0.0 | 0.00 | 0.51 | 0.48 | 94 | 1012.1 |
| 20260904054800 | 12 | 69 | 0.0 | 0.0 | 0.03 | 0.51 | 0.48 | 94 | 1012.0 |
| 20260904054257 | 12 | 69 | 0.0 | 0.0 | 0.03 | 0.51 | 0.48 | 94 | 1012.0 |
| 20260904053752 | 12 | 69 | 0.0 | 0.0 | 0.03 | 0.51 | 0.48 | 94 | 1012.0 |
| 20260904053720 | 12 | 69 | 0.0 | 0.0 | 0.03 | 0.51 | 0.48 | 94 | 1012.0 |
| 20260904053307 | 12 | 69 | 0.0 | 0.0 | 0.03 | 0.51 | 0.48 | 94 | 1012.1 |
| 20260904053235 | 12 | 69 | 0.0 | 0.0 | 0.03 | 0.51 | 0.48 | 94 | 1012.1 |
| 20260904052803 | 12 | 69 | 0.0 | 0.0 | 0.03 | 0.51 | 0.48 | 94 | 1012.0 |
| 20260904052240 | 12 | 69 | 0.0 | 0.0 | 0.03 | 0.51 | 0.48 | 94 | 1012.0 |
| 20260904051725 | 12 | 69 | 0.0 | 0.0 | 0.03 | 0.51 | 0.48 | 94 | 1011.9 |
| 20260904051232 | 12 | 69 | 0.0 | 0.0 | 0.03 | 0.51 | 0.48 | 94 | 1012.0 |
| 20260904050759 | 12 | 69 | 0.0 | 0.0 | 0.03 | 0.51 | 0.48 | 94 | 1011.9 |
| 20260904050727 | 12 | 69 | 0.0 | 0.0 | 0.03 | 0.51 | 0.48 | 94 | 1011.9 |
| 20260904050234 | 12 | 69 | 0.0 | 0.0 | 0.03 | 0.51 | 0.48 | 94 | 1012.0 |
| 20260904045802 | 12 | 69 | 0.0 | 0.0 | 0.03 | 0.51 | 0.48 | 94 | 1012.1 |
| 20260904045238 | 12 | 69 | 0.0 | 0.0 | 0.03 | 0.51 | 0.48 | 94 | 1012.1 |
| 20260904044724 | 12 | 69 | 0.0 | 0.0 | 0.00 | 0.48 | 0.46 | 94 | 1012.1 |
| 20260904044235 | 12 | 69 | 0.0 | 0.0 | 0.03 | 0.48 | 0.46 | 94 | 1012.1 |
| 20260904043722 | 12 | 69 | 0.0 | 0.0 | 0.03 | 0.48 | 0.46 | 94 | 1012.0 |
| 20260904043229 | 12 | 69 | 0.0 | 0.0 | 0.03 | 0.48 | 0.46 | 94 | 1012.1 |
| 20260904042736 | 12 | 69 | 0.0 | 0.0 | 0.03 | 0.48 | 0.46 | 94 | 1012.1 |
| 20260904042225 | 12 | 69 | 0.0 | 0.0 | 0.03 | 0.48 | 0.46 | 94 | 1012.1 |
| 20260904041730 | 12 | 69 | 0.0 | 0.0 | 0.03 | 0.48 | 0.46 | 94 | 1012.1 |
| 20260904041257 | 12 | 69 | 0.0 | 0.0 | 0.03 | 0.48 | 0.46 | 94 | 1012.0 |
| 20260904040732 | 12 | 69 | 0.0 | 0.0 | 0.03 | 0.48 | 0.46 | 94 | 1011.9 |